User: anonymous
Location: Oshawa
(43.9000°N, 78.8670°W)
Time: 10:52:42
(UTC-04:00)
Language:

Cosmos 1821 Rocket - Orbit

View from above orbital plane
View from above orbital plane
View from above satellite
View from above satellite

Ground track
Ground track

The orbit data is extracted from the following two-line orbital elements,

1 17526U 87017B   14111.20204602  .00000122  00000-0  10919-3 0   706
2 17526 082.9048 181.7078 0038854 300.8390 110.4531 13.76685461347700
Epoch (UTC): 21 April 2014 04:50:56
Eccentricity: 0.0038854
inclination: 82.9048°
perigee height: 947 km
apogee height: 1004 km
right ascension of ascending node: 181.7078°
argument of perigee: 300.8390°
revolutions per day: 13.76685461
mean anomaly at epoch: 110.4531°
orbit number at epoch: 34770

The dashed part of the orbit path shows where the satellite is in the earth's shadow,  

DLR